AirNav   Jet Aviation Boston
 
 1092 users online  

OK93 Airman Acres Airport
Collinsville, Oklahoma, USA

GOING TO COLLINSVILLE?


FAA INFORMATION EFFECTIVE 19 JULY 2018

Location

FAA Identifier: OK93
Lat/Long: 36-20-00.3360N / 095-53-00.9650W
36-20.005600N / 095-53.016083W
36.3334267 / -95.8836014
(estimated)
Elevation: 695 ft. / 212 m (estimated)
Variation: 06E (1985)
From city: 3 miles SW of COLLINSVILLE, OK
Time zone: UTC -5 (UTC -6 during Standard Time)
Zip code: 74021

Airport Operations

Airport use: Private use. Permission required prior to landing
Activation date: 11/1964
Control tower: no
ARTCC: KANSAS CITY CENTER
FSS: MC ALESTER FLIGHT SERVICE STATION
Attendance: CONTINUOUS
Wind indicator: yes
Segmented circle: no
Lights: SS-SR

Airport Communications

WX ASOS at TUL (8 nm S): PHONE 918-831-6772
WX AWOS-3 at OWP (16 nm SW): 118.325 (918-246-2635)
WX ASOS at RVS (18 nm S): PHONE 918-299-0740
WX AWOS-3 at GCM (20 nm E): 119.925 (918-343-0184)

Nearby radio navigation aids

VOR radial/distance  VOR name  Freq  Var
TULr323/9.4TULSA VORTAC114.4008E
GNPr003/25.1GLENPOOL VOR/DME110.6006E
BVOr160/30.7BARTLESVILLE VOR/DME117.9008E
OKMr351/38.4OKMULGEE VOR/DME114.9008E

 
NDB name  Hdg/Dist  Freq  Var  ID
OILLR358/14.233803ETU - ..-
WILLIAM POGUE048/16.336206EOWP --- .-- .--.

Airport Services

Airframe service: MAJOR
Powerplant service: MAJOR

Runway Information

Runway N/S

Dimensions: 2650 x 230 ft. / 808 x 70 m
Surface: turf
Runway edge lights: low intensity
RUNWAY N  RUNWAY S
Traffic pattern: leftleft
Obstructions: trees, 300 ft. from runway
AND WIRES.
none

Airport Ownership and Management from official FAA records

Ownership: Privately-owned
Owner: AIRMAN ACRES INC
12407 N 73 E AVE
COLLINSVILLE, OK 74021
Phone 918-371-4498
Manager: DONALD R. SIEMENS
12407 N 73 E. AVE.
COLLINSVILLE, OK 74021
Phone 918-371-2014
IF DONALD SIEMENS IS UNAVAILABLE CALL AUBREY POLLOCK: 12300 N 73 EAST AVE, 918-371-4498

Airport Operational Statistics

Aircraft based on the field: 30
Single engine airplanes: 30
    

Additional Remarks

HOMES ON BOTH SIDES OF RWY.

Instrument Procedures

There are no published instrument procedures at OK93.

Some nearby airports with instrument procedures:

KTUL - Tulsa International Airport (8 nm S)
KOWP - William R Pogue Municipal Airport (16 nm SW)
KRVS - Richard Lloyd Jones Jr Airport (18 nm S)
KGCM - Claremore Regional Airport (20 nm E)
KBVO - Bartlesville Municipal Airport (27 nm N)
 
Loc | Ops | Rwys | IFR | FBO | Links
Com | Nav | Svcs | Stats | Notes


 
Area around OK93 (Airman Acres Airport)
 
Road maps at: MapQuest Bing Google
 
Aerial photo
WARNING: Photo may not be current or correct
Aerial photo of OK93 (Airman Acres Airport)
Do you have a better or more recent aerial photo of Airman Acres Airport that you would like to share? If so, please send us your photo.

 
Sectional chart

 
Airport distance calculator
Flying to Airman Acres Airport? Find the distance to fly.

From to OK93

Sunrise and sunset
Times for 22-Jul-2018
 Local
(UTC-5)
 Zulu
(UTC)
Morning civil twilight05:5410:54
Sunrise06:2311:23
Sunset20:3601:36
Evening civil twilight21:0602:06

Current date and time
Zulu (UTC)  22-Jul-2018 15:09:19
Local (UTC-5)  22-Jul-2018 10:09:19
 
METAR
KTUL 
8nm S 
221453Z VRB04KT 10SM FEW160 BKN180 OVC250 27/21 A2996 RMK AO2 SLP135 T02670206 56004
KOWP 
16nm SW 
221455Z AUTO 04005KT 10SM CLR 27/20 A2998 RMK AO2 T02660199
KRVS 
18nm S 
221453Z 05004KT 10SM CLR 27/18 A2996 RMK AO2 SLP147 T02720183 55004
KGCM 
19nm E 
221500Z AUTO 06004KT 10SM CLR 27/19 A2999 RMK AO2
TAF
KTUL 
8nm S 
221120Z 2212/2312 00000KT P6SM BKN250 FM221500 07007KT P6SM SKC
KRVS 
18nm S 
221120Z 2212/2312 00000KT P6SM BKN250 FM221500 08006KT P6SM SKC FM230100 VRB03KT P6SM SKC
NOTAMs
Click for the latest NOTAMs
NOTAMs are issued by the DoD/FAA and will open in a separate window not controlled by AirNav.

 

 
 

Would you like to see your business listed on this page?

 If your business provides an interesting product or service to pilots, flight crews, aircraft, or users of the Airman Acres Airport, you should consider listing it here.  To start the listing process, click on the button below
 
Add a business
 

Other Pages about Airman Acres Airport

Update a link
 
Copyright © AirNav, LLC. All rights reserved. Privacy Policy  Contact